QPF
0.00 0.00 0.00 0.00 0.00 0.00 0.00 0.00 0.02 0.03 0.07 0.02 0.00 0.00 0.00 0.00 0.00 0.00 0.00 0.00 0.00 0.00 0.00 0.00 0.00 0.00 0.00 0.00 0.00 0.01 0.01 0.02 0.03 0.03 0.03 0.04 0.03 0.03 0.03 0.03 0.04 0.07 0.10 0.11
0.00 0.00 0.00 0.00 0.00 0.00 0.00 0.00 0.00 0.00 0.01 0.00 0.00 0.00 0.00 0.00 0.00 0.00 0.00 0.00 0.00 0.00 0.00 0.00 0.00 0.00 0.00 0.00 0.00 0.01 0.01 0.01 0.02 0.02 0.02 0.03 0.02 0.02 0.02 0.02 0.03 0.05 0.08 0.11
0.00 0.00 0.00 0.05 0.01 0.00 0.00 0.00 0.00 0.00 0.00 0.00 0.00 0.00 0.00 0.00 0.00 0.00 0.00 0.00 0.00 0.00 0.00 0.00 0.00 0.00 0.00 0.00 0.00 0.00 0.01 0.01 0.01 0.01 0.01 0.01 0.01 0.01 0.01 0.01 0.02 0.03 0.06 0.09
0.00 0.00 0.03 0.05 0.00 0.00 0.00 0.00 0.00 0.00 0.00 0.00 0.00 0.00 0.00 0.00 0.00 0.00 0.00 0.00 0.00 0.00 0.00 0.00 0.00 0.00 0.00 0.00 0.00 0.00 0.00 0.00 0.00 0.00 0.01 0.01 0.01 0.01 0.01 0.01 0.02 0.02 0.04 0.07
0.00 0.00 0.02 0.01 0.00 0.00 0.00 0.00 0.00 0.00 0.00 0.00 0.00 0.00 0.00 0.00 0.00 0.00 0.00 0.00 0.00 0.00 0.00 0.00 0.00 0.00 0.00 0.00 0.00 0.00 0.00 0.00 0.00 0.00 0.01 0.01 0.01 0.02 0.02 0.02 0.02 0.01 0.02 0.04
0.00 0.00 0.01 0.01 0.00 0.00 0.00 0.00 0.00 0.00 0.00 0.00 0.00 0.00 0.00 0.00 0.00 0.00 0.00 0.00 0.00 0.00 0.00 0.00 0.00 0.00 0.00 0.00 0.00 0.00 0.01 0.01 0.01 0.01 0.02 0.02 0.02 0.03 0.02 0.03 0.02 0.01 0.01 0.04
0.00 0.00 0.00 0.00 0.00 0.00 0.00 0.00 0.00 0.00 0.00 0.00 0.00 0.00 0.00 0.00 0.00 0.00 0.00 0.00 0.00 0.00 0.00 0.00 0.00 0.00 0.01 0.02 0.02 0.02 0.02 0.02 0.02 0.02 0.03 0.02 0.03 0.04 0.04 0.03 0.03 0.04 0.03 0.04
0.00 0.00 0.00 0.00 0.00 0.00 0.00 0.00 0.00 0.00 0.00 0.00 0.00 0.00 0.00 0.00 0.00 0.00 0.00 0.00 0.00 0.00 0.00 0.00 0.00 0.01 0.03 0.03 0.03 0.03 0.03 0.03 0.03 0.03 0.03 0.02 0.04 0.05 0.06 0.06 0.06 0.04 0.05 0.06
0.00 0.00 0.00 0.00 0.00 0.00 0.00 0.00 0.00 0.00 0.00 0.00 0.00 0.00 0.00 0.00 0.00 0.00 0.00 0.00 0.00 0.00 0.00 0.00 0.01 0.03 0.04 0.03 0.03 0.03 0.04 0.04 0.04 0.04 0.05 0.05 0.06 0.06 0.06 0.06 0.05 0.03 0.06 0.10
0.00 0.00 0.00 0.00 0.00 0.00 0.00 0.00 0.00 0.00 0.00 0.00 0.00 0.00 0.00 0.00 0.00 0.00 0.00 0.00 0.00 0.00 0.01 0.02 0.03 0.03 0.03 0.03 0.04 0.05 0.06 0.06 0.06 0.06 0.06 0.06 0.08 0.07 0.06 0.05 0.05 0.05 0.08 0.12
0.00 0.00 0.00 0.00 0.00 0.00 0.00 0.00 0.00 0.00 0.00 0.00 0.00 0.00 0.00 0.00 0.00 0.00 0.00 0.00 0.01 0.02 0.04 0.04 0.04 0.03 0.03 0.04 0.07 0.09 0.08 0.08 0.08 0.08 0.07 0.07 0.07 0.07 0.06 0.05 0.05 0.05 0.09 0.13
0.00 0.00 0.00 0.00 0.00 0.00 0.00 0.00 0.00 0.00 0.00 0.00 0.00 0.00 0.00 0.00 0.00 0.00 0.00 0.01 0.04 0.06 0.08 0.07 0.06 0.05 0.05 0.07 0.11 0.13 0.13 0.11 0.11 0.11 0.09 0.08 0.07 0.07 0.04 0.03 0.02 0.01 0.02 0.05
0.00 0.00 0.00 0.00 0.00 0.00 0.00 0.00 0.00 0.00 0.00 0.00 0.00 0.00 0.00 0.00 0.00 0.00 0.03 0.07 0.12 0.15 0.16 0.14 0.12 0.09 0.07 0.10 0.13 0.15 0.14 0.13 0.13 0.12 0.10 0.09 0.08 0.08 0.09 0.07 0.03 0.01 0.01 0.01
0.00 0.00 0.00 0.00 0.00 0.00 0.00 0.00 0.00 0.00 0.00 0.00 0.00 0.00 0.00 0.00 0.00 0.03 0.08 0.15 0.22 0.23 0.20 0.17 0.14 0.10 0.10 0.12 0.12 0.12 0.12 0.11 0.11 0.10 0.09 0.08 0.08 0.08 0.09 0.12 0.10 0.05 0.02 0.00
0.00 0.00 0.00 0.00 0.00 0.00 0.00 0.00 0.00 0.00 0.00 0.00 0.00 0.00 0.00 0.00 0.03 0.08 0.15 0.24 0.29 0.24 0.19 0.15 0.12 0.11 0.10 0.11 0.10 0.10 0.10 0.09 0.09 0.09 0.08 0.07 0.07 0.07 0.08 0.11 0.14 0.14 0.09 0.02
0.00 0.00 0.00 0.00 0.00 0.00 0.00 0.00 0.00 0.00 0.00 0.00 0.00 0.00 0.00 0.01 0.04 0.09 0.16 0.25 0.31 0.27 0.19 0.15 0.12 0.10 0.09 0.10 0.10 0.09 0.07 0.05 0.04 0.06 0.06 0.05 0.05 0.06 0.09 0.12 0.14 0.15 0.12 0.04
0.00 0.00 0.00 0.00 0.00 0.00 0.00 0.00 0.00 0.00 0.00 0.00 0.00 0.00 0.00 0.02 0.06 0.12 0.17 0.21 0.21 0.19 0.16 0.14 0.11 0.08 0.08 0.09 0.08 0.07 0.06 0.05 0.03 0.03 0.03 0.04 0.06 0.08 0.10 0.12 0.12 0.12 0.10 0.04
0.00 0.00 0.00 0.00 0.00 0.00 0.00 0.00 0.00 0.00 0.00 0.00 0.00 0.00 0.01 0.03 0.09 0.16 0.21 0.22 0.17 0.12 0.11 0.11 0.08 0.06 0.07 0.07 0.07 0.07 0.06 0.06 0.05 0.05 0.06 0.08 0.09 0.11 0.12 0.11 0.09 0.08 0.05 0.01
0.00 0.00 0.00 0.00 0.00 0.00 0.00 0.00 0.00 0.00 0.00 0.00 0.00 0.00 0.00 0.03 0.08 0.14 0.18 0.21 0.19 0.16 0.12 0.08 0.05 0.06 0.07 0.04 0.02 0.06 0.06 0.07 0.06 0.07 0.08 0.07 0.08 0.11 0.10 0.08 0.06 0.05 0.02 0.01
0.00 0.00 0.00 0.00 0.00 0.00 0.00 0.00 0.00 0.00 0.00 0.00 0.00 0.00 0.00 0.02 0.06 0.11 0.14 0.16 0.17 0.16 0.11 0.06 0.05 0.07 0.05 0.03 0.01 0.04 0.04 0.04 0.04 0.04 0.06 0.06 0.07 0.07 0.06 0.05 0.05 0.04 0.02 0.01
0.00 0.00 0.00 0.00 0.00 0.00 0.00 0.00 0.00 0.00 0.00 0.00 0.00 0.00 0.00 0.01 0.04 0.09 0.16 0.16 0.11 0.10 0.08 0.06 0.05 0.04 0.02 0.01 0.02 0.04 0.04 0.04 0.05 0.05 0.05 0.06 0.06 0.06 0.06 0.05 0.05 0.04 0.02 0.01
0.00 0.00 0.00 0.00 0.00 0.00 0.00 0.00 0.00 0.00 0.00 0.00 0.00 0.00 0.00 0.01 0.03 0.05 0.09 0.14 0.12 0.12 0.09 0.07 0.05 0.02 0.01 0.01 0.03 0.05 0.06 0.08 0.10 0.10 0.10 0.09 0.08 0.08 0.07 0.05 0.04 0.03 0.02 0.02
0.00 0.00 0.00 0.00 0.00 0.00 0.00 0.00 0.00 0.00 0.00 0.00 0.00 0.00 0.00 0.00 0.02 0.05 0.06 0.07 0.09 0.12 0.08 0.06 0.05 0.03 0.02 0.02 0.03 0.03 0.03 0.06 0.07 0.08 0.07 0.06 0.05 0.05 0.04 0.03 0.03 0.04 0.05 0.06
0.00 0.00 0.00 0.00 0.00 0.00 0.00 0.00 0.00 0.00 0.00 0.00 0.00 0.00 0.00 0.00 0.00 0.01 0.03 0.04 0.06 0.09 0.07 0.06 0.05 0.04 0.03 0.04 0.03 0.03 0.02 0.03 0.03 0.03 0.04 0.04 0.04 0.05 0.06 0.07 0.08 0.09 0.09 0.07
0.00 0.00 0.00 0.00 0.00 0.00 0.00 0.00 0.00 0.00 0.00 0.00 0.00 0.00 0.00 0.00 0.00 0.00 0.00 0.01 0.02 0.03 0.04 0.04 0.05 0.04 0.03 0.04 0.05 0.04 0.03 0.02 0.02 0.03 0.05 0.08 0.09 0.11 0.12 0.11 0.09 0.08 0.07 0.04
0.00 0.00 0.00 0.00 0.00 0.00 0.00 0.00 0.00 0.00 0.00 0.00 0.00 0.00 0.00 0.00 0.00 0.00 0.00 0.00 0.00 0.01 0.01 0.01 0.01 0.02 0.02 0.03 0.05 0.06 0.06 0.05 0.06 0.06 0.08 0.11 0.15 0.16 0.13 0.09 0.07 0.06 0.06 0.04
0.00 0.00 0.00 0.00 0.00 0.00 0.00 0.00 0.00 0.00 0.00 0.00 0.00 0.00 0.00 0.00 0.00 0.00 0.00 0.00 0.00 0.00 0.00 0.00 0.00 0.00 0.00 0.01 0.02 0.04 0.05 0.06 0.07 0.08 0.08 0.09 0.09 0.07 0.05 0.04 0.04 0.03 0.03 0.02
MSLP
1010.45 1010.34 1010.30 1010.38 1010.58 1010.92 1011.35 1011.85 1012.34 1012.77 1013.10 1013.30 1013.35 1013.25 1013.04 1012.75 1012.40 1012.02 1011.64 1011.28 1010.93 1010.62 1010.34 1010.10 1009.89 1009.73 1009.61 1009.52 1009.46 1009.41 1009.35 1009.27 1009.16 1009.01 1008.80 1008.56 1008.29 1008.01 1007.72 1007.44 1007.18 1006.92 1006.68 1006.44
1011.26 1011.22 1011.21 1011.25 1011.39 1011.61 1011.92 1012.28 1012.64 1012.97 1013.22 1013.37 1013.38 1013.27 1013.04 1012.72 1012.34 1011.91 1011.47 1011.03 1010.61 1010.22 1009.87 1009.55 1009.28 1009.05 1008.86 1008.71 1008.58 1008.47 1008.36 1008.25 1008.11 1007.96 1007.78 1007.59 1007.38 1007.17 1006.95 1006.74 1006.53 1006.32 1006.12 1005.91
1012.01 1012.07 1012.10 1012.15 1012.24 1012.38 1012.57 1012.80 1013.02 1013.22 1013.36 1013.40 1013.33 1013.15 1012.87 1012.50 1012.05 1011.57 1011.06 1010.56 1010.08 1009.63 1009.22 1008.86 1008.54 1008.27 1008.03 1007.83 1007.65 1007.49 1007.34 1007.19 1007.04 1006.88 1006.72 1006.56 1006.40 1006.25 1006.10 1005.94 1005.79 1005.63 1005.46 1005.29
1012.69 1012.83 1012.93 1013.01 1013.07 1013.15 1013.24 1013.34 1013.42 1013.47 1013.46 1013.38 1013.19 1012.91 1012.54 1012.08 1011.57 1011.01 1010.45 1009.89 1009.37 1008.88 1008.45 1008.06 1007.73 1007.44 1007.19 1006.97 1006.76 1006.58 1006.40 1006.23 1006.06 1005.89 1005.74 1005.59 1005.46 1005.34 1005.23 1005.12 1005.01 1004.89 1004.76 1004.62
1013.27 1013.50 1013.65 1013.75 1013.81 1013.84 1013.84 1013.82 1013.77 1013.67 1013.51 1013.28 1012.96 1012.56 1012.08 1011.53 1010.94 1010.33 1009.71 1009.12 1008.57 1008.07 1007.63 1007.26 1006.93 1006.66 1006.42 1006.20 1006.00 1005.80 1005.61 1005.43 1005.24 1005.07 1004.90 1004.76 1004.63 1004.52 1004.42 1004.33 1004.24 1004.15 1004.05 1003.95
1013.77 1014.04 1014.24 1014.35 1014.39 1014.38 1014.30 1014.18 1014.00 1013.77 1013.47 1013.10 1012.65 1012.14 1011.56 1010.93 1010.27 1009.61 1008.96 1008.35 1007.79 1007.30 1006.88 1006.52 1006.23 1005.98 1005.77 1005.58 1005.39 1005.21 1005.01 1004.82 1004.62 1004.42 1004.24 1004.07 1003.92 1003.80 1003.70 1003.61 1003.53 1003.46 1003.39 1003.32
1014.18 1014.46 1014.67 1014.78 1014.80 1014.73 1014.59 1014.37 1014.09 1013.74 1013.32 1012.83 1012.29 1011.68 1011.03 1010.34 1009.64 1008.95 1008.29 1007.67 1007.12 1006.64 1006.25 1005.92 1005.65 1005.44 1005.26 1005.09 1004.93 1004.75 1004.56 1004.35 1004.13 1003.91 1003.70 1003.50 1003.32 1003.17 1003.05 1002.95 1002.88 1002.82 1002.79 1002.77
1014.50 1014.76 1014.94 1015.02 1015.00 1014.88 1014.66 1014.37 1014.00 1013.56 1013.05 1012.49 1011.88 1011.22 1010.53 1009.82 1009.11 1008.41 1007.75 1007.15 1006.61 1006.14 1005.76 1005.45 1005.20 1005.01 1004.84 1004.69 1004.53 1004.36 1004.16 1003.94 1003.70 1003.45 1003.20 1002.97 1002.75 1002.57 1002.43 1002.33 1002.27 1002.24 1002.25 1002.29
1014.72 1014.94 1015.07 1015.09 1015.01 1014.83 1014.55 1014.18 1013.74 1013.24 1012.68 1012.08 1011.45 1010.78 1010.09 1009.40 1008.70 1008.03 1007.38 1006.79 1006.25 1005.79 1005.40 1005.08 1004.82 1004.61 1004.44 1004.27 1004.11 1003.92 1003.71 1003.48 1003.21 1002.94 1002.66 1002.39 1002.15 1001.95 1001.80 1001.70 1001.66 1001.68 1001.75 1001.85
1014.84 1015.00 1015.06 1015.02 1014.87 1014.62 1014.27 1013.84 1013.36 1012.82 1012.24 1011.64 1011.02 1010.38 1009.73 1009.08 1008.43 1007.79 1007.16 1006.57 1006.03 1005.54 1005.12 1004.75 1004.45 1004.19 1003.97 1003.77 1003.56 1003.35 1003.12 1002.86 1002.57 1002.28 1001.98 1001.70 1001.45 1001.24 1001.11 1001.04 1001.04 1001.12 1001.25 1001.44
1014.86 1014.96 1014.95 1014.84 1014.62 1014.30 1013.90 1013.42 1012.90 1012.35 1011.79 1011.21 1010.63 1010.05 1009.46 1008.87 1008.27 1007.67 1007.06 1006.47 1005.89 1005.36 1004.86 1004.42 1004.03 1003.69 1003.39 1003.11 1002.85 1002.59 1002.33 1002.04 1001.74 1001.44 1001.14 1000.86 1000.63 1000.45 1000.34 1000.32 1000.39 1000.54 1000.76 1001.04
1014.79 1014.84 1014.78 1014.61 1014.33 1013.96 1013.51 1013.00 1012.47 1011.92 1011.38 1010.85 1010.33 1009.81 1009.30 1008.77 1008.22 1007.65 1007.05 1006.43 1005.81 1005.19 1004.60 1004.05 1003.54 1003.09 1002.68 1002.32 1001.99 1001.67 1001.37 1001.06 1000.76 1000.46 1000.18 999.93 999.73 999.60 999.55 999.59 999.73 999.96 1000.27 1000.64
1014.66 1014.68 1014.59 1014.39 1014.07 1013.65 1013.17 1012.65 1012.12 1011.59 1011.08 1010.60 1010.14 1009.70 1009.25 1008.78 1008.27 1007.71 1007.10 1006.44 1005.75 1005.04 1004.34 1003.66 1003.02 1002.44 1001.92 1001.45 1001.04 1000.67 1000.34 1000.02 999.73 999.45 999.20 999.00 998.85 998.78 998.80 998.92 999.13 999.44 999.83 1000.27
1014.50 1014.51 1014.41 1014.19 1013.86 1013.43 1012.95 1012.43 1011.91 1011.40 1010.94 1010.51 1010.11 1009.72 1009.32 1008.89 1008.41 1007.85 1007.21 1006.50 1005.72 1004.91 1004.09 1003.28 1002.51 1001.81 1001.18 1000.62 1000.14 999.73 999.37 999.05 998.78 998.54 998.34 998.19 998.10 998.10 998.19 998.37 998.65 999.03 999.48 999.98
1014.32 1014.35 1014.27 1014.06 1013.73 1013.32 1012.85 1012.35 1011.85 1011.38 1010.95 1010.56 1010.20 1009.86 1009.50 1009.09 1008.60 1008.03 1007.35 1006.58 1005.73 1004.82 1003.88 1002.96 1002.08 1001.27 1000.55 999.93 999.40 998.96 998.59 998.29 998.04 997.84 997.70 997.61 997.58 997.64 997.79 998.03 998.36 998.78 999.27 999.80
1014.14 1014.21 1014.15 1013.97 1013.68 1013.30 1012.85 1012.39 1011.92 1011.49 1011.09 1010.74 1010.41 1010.08 1009.73 1009.32 1008.82 1008.22 1007.50 1006.67 1005.74 1004.76 1003.74 1002.73 1001.77 1000.89 1000.11 999.45 998.89 998.45 998.09 997.81 997.60 997.45 997.35 997.31 997.34 997.44 997.63 997.91 998.27 998.71 999.21 999.75
1013.97 1014.07 1014.06 1013.92 1013.67 1013.33 1012.93 1012.50 1012.08 1011.67 1011.30 1010.97 1010.65 1010.33 1009.97 1009.54 1009.02 1008.38 1007.62 1006.74 1005.76 1004.72 1003.65 1002.59 1001.59 1000.68 999.88 999.20 998.65 998.22 997.89 997.64 997.47 997.35 997.30 997.29 997.35 997.48 997.69 997.98 998.35 998.79 999.28 999.80
1013.81 1013.94 1013.96 1013.87 1013.67 1013.38 1013.02 1012.64 1012.24 1011.87 1011.51 1011.18 1010.86 1010.52 1010.14 1009.69 1009.13 1008.45 1007.66 1006.74 1005.73 1004.66 1003.58 1002.51 1001.51 1000.60 999.81 999.16 998.64 998.23 997.93 997.72 997.58 997.50 997.46 997.48 997.55 997.69 997.89 998.17 998.52 998.94 999.41 999.90
1013.63 1013.79 1013.84 1013.79 1013.63 1013.38 1013.07 1012.72 1012.36 1012.00 1011.65 1011.32 1010.98 1010.62 1010.21 1009.71 1009.12 1008.41 1007.59 1006.65 1005.64 1004.57 1003.49 1002.45 1001.47 1000.60 999.85 999.24 998.75 998.39 998.13 997.95 997.83 997.76 997.74 997.75 997.82 997.93 998.11 998.36 998.68 999.06 999.49 999.95
1013.44 1013.61 1013.69 1013.67 1013.54 1013.33 1013.05 1012.73 1012.39 1012.04 1011.69 1011.35 1010.99 1010.59 1010.14 1009.62 1008.99 1008.26 1007.41 1006.47 1005.46 1004.41 1003.37 1002.36 1001.43 1000.61 999.91 999.35 998.91 998.58 998.34 998.18 998.07 998.01 997.97 997.97 998.01 998.10 998.24 998.45 998.72 999.06 999.45 999.87
1013.22 1013.40 1013.50 1013.49 1013.40 1013.21 1012.96 1012.66 1012.33 1011.99 1011.64 1011.28 1010.89 1010.47 1009.99 1009.43 1008.78 1008.02 1007.17 1006.24 1005.24 1004.22 1003.21 1002.25 1001.37 1000.60 999.95 999.42 999.01 998.71 998.49 998.33 998.22 998.14 998.08 998.05 998.05 998.09 998.19 998.35 998.58 998.87 999.22 999.61
1012.99 1013.18 1013.28 1013.29 1013.20 1013.04 1012.80 1012.52 1012.20 1011.87 1011.51 1011.14 1010.75 1010.30 1009.80 1009.22 1008.55 1007.79 1006.94 1006.01 1005.04 1004.05 1003.07 1002.15 1001.31 1000.57 999.94 999.44 999.04 998.74 998.51 998.34 998.21 998.10 998.01 997.95 997.91 997.91 997.96 998.08 998.26 998.51 998.82 999.18
1012.74 1012.93 1013.04 1013.06 1012.98 1012.83 1012.61 1012.35 1012.05 1011.72 1011.38 1011.01 1010.61 1010.17 1009.66 1009.08 1008.41 1007.65 1006.80 1005.89 1004.94 1003.96 1003.01 1002.11 1001.29 1000.56 999.94 999.43 999.02 998.70 998.44 998.24 998.07 997.93 997.80 997.70 997.62 997.59 997.60 997.68 997.82 998.04 998.32 998.65
1012.48 1012.67 1012.79 1012.81 1012.75 1012.61 1012.41 1012.17 1011.89 1011.60 1011.28 1010.93 1010.56 1010.13 1009.64 1009.07 1008.42 1007.68 1006.85 1005.96 1005.02 1004.06 1003.12 1002.22 1001.39 1000.65 1000.01 999.46 999.02 998.65 998.36 998.11 997.90 997.71 997.55 997.41 997.31 997.24 997.23 997.28 997.40 997.58 997.84 998.15
1012.19 1012.40 1012.52 1012.55 1012.50 1012.38 1012.21 1012.00 1011.77 1011.51 1011.24 1010.94 1010.61 1010.23 1009.78 1009.26 1008.64 1007.93 1007.14 1006.27 1005.35 1004.40 1003.46 1002.55 1001.70 1000.93 1000.24 999.65 999.15 998.72 998.37 998.07 997.81 997.58 997.39 997.22 997.09 997.01 996.98 997.02 997.12 997.29 997.52 997.81
1011.86 1012.08 1012.22 1012.27 1012.24 1012.15 1012.02 1011.86 1011.68 1011.48 1011.28 1011.05 1010.79 1010.48 1010.10 1009.64 1009.08 1008.43 1007.68 1006.85 1005.95 1005.02 1004.08 1003.16 1002.28 1001.46 1000.73 1000.08 999.51 999.02 998.60 998.25 997.94 997.67 997.45 997.27 997.13 997.04 997.00 997.03 997.12 997.28 997.50 997.77
1011.49 1011.73 1011.88 1011.95 1011.96 1011.91 1011.83 1011.73 1011.62 1011.50 1011.38 1011.24 1011.07 1010.85 1010.56 1010.18 1009.70 1009.12 1008.44 1007.66 1006.81 1005.91 1004.98 1004.05 1003.15 1002.30 1001.52 1000.82 1000.19 999.64 999.17 998.76 998.41 998.11 997.87 997.67 997.52 997.43 997.39 997.42 997.50 997.65 997.86 998.11
Thickness
5760 5771 5773 5762 5753 5746 5733 5719 5707 5703 5698 5693 5681 5672 5667 5664 5659 5652 5645 5641 5635 5627 5618 5611 5604 5598 5592 5588 5584 5581 5579 5576 5575 5576 5577 5579 5582 5585 5589 5593 5599 5606 5614 5622
5749 5763 5763 5745 5736 5729 5720 5711 5702 5695 5691 5690 5678 5668 5659 5652 5645 5636 5631 5623 5614 5605 5597 5589 5582 5577 5572 5569 5566 5564 5561 5558 5556 5556 5557 5558 5562 5566 5571 5576 5582 5589 5596 5604
5732 5753 5752 5716 5712 5708 5702 5699 5690 5679 5680 5676 5662 5652 5645 5638 5631 5625 5613 5601 5590 5582 5574 5568 5565 5562 5560 5559 5558 5555 5553 5551 5549 5548 5548 5549 5551 5554 5557 5560 5565 5571 5579 5588
5735 5737 5708 5702 5716 5707 5695 5691 5685 5675 5663 5655 5647 5642 5635 5627 5617 5601 5589 5579 5571 5565 5561 5560 5559 5558 5556 5553 5550 5548 5546 5545 5544 5543 5543 5544 5546 5549 5550 5551 5553 5557 5563 5571
5724 5717 5711 5702 5703 5694 5680 5675 5667 5656 5649 5642 5636 5627 5624 5615 5598 5583 5573 5566 5561 5559 5558 5557 5555 5553 5551 5548 5544 5541 5539 5537 5536 5535 5536 5537 5539 5542 5545 5546 5547 5549 5553 5558
5716 5699 5692 5687 5694 5694 5681 5671 5659 5649 5638 5630 5622 5610 5609 5600 5585 5575 5567 5562 5559 5558 5556 5554 5552 5549 5545 5541 5537 5533 5530 5528 5526 5526 5527 5529 5531 5534 5536 5538 5541 5544 5548 5551
5704 5695 5693 5690 5693 5684 5656 5648 5653 5644 5633 5620 5607 5595 5591 5586 5578 5570 5566 5562 5559 5556 5552 5549 5545 5541 5536 5532 5526 5523 5520 5518 5516 5515 5516 5519 5522 5525 5527 5529 5532 5536 5540 5543
5694 5683 5676 5690 5679 5657 5646 5649 5641 5631 5622 5612 5602 5593 5583 5575 5570 5567 5564 5560 5555 5550 5546 5541 5536 5530 5526 5520 5515 5509 5506 5505 5505 5505 5506 5511 5514 5516 5518 5520 5523 5527 5531 5535
5688 5681 5688 5681 5669 5661 5652 5640 5632 5623 5615 5604 5594 5585 5577 5572 5568 5564 5558 5553 5547 5541 5536 5530 5523 5515 5509 5504 5498 5494 5493 5493 5494 5496 5497 5499 5502 5505 5508 5511 5514 5520 5526 5530
5688 5690 5684 5674 5666 5658 5647 5636 5627 5617 5607 5596 5585 5578 5573 5569 5564 5558 5551 5543 5536 5528 5520 5513 5505 5497 5490 5486 5483 5481 5481 5482 5484 5486 5488 5490 5493 5496 5499 5503 5507 5512 5518 5524
5682 5680 5673 5668 5658 5649 5642 5632 5621 5611 5599 5587 5578 5573 5568 5563 5557 5550 5541 5531 5518 5506 5497 5491 5485 5480 5476 5472 5470 5469 5470 5472 5474 5476 5479 5482 5485 5488 5491 5496 5499 5503 5509 5516
5668 5668 5658 5653 5650 5644 5633 5623 5614 5604 5594 5584 5574 5567 5562 5556 5549 5538 5526 5512 5500 5489 5481 5476 5472 5470 5467 5464 5462 5462 5464 5466 5467 5469 5472 5474 5477 5481 5485 5488 5492 5496 5502 5508
5675 5669 5660 5653 5647 5639 5628 5618 5609 5599 5588 5579 5572 5565 5558 5550 5540 5528 5513 5500 5489 5480 5473 5469 5466 5465 5463 5461 5460 5460 5460 5462 5462 5463 5465 5467 5470 5474 5479 5482 5486 5492 5498 5504
5674 5663 5652 5647 5640 5632 5622 5614 5606 5595 5584 5575 5568 5562 5553 5543 5533 5521 5508 5496 5486 5479 5474 5470 5467 5465 5464 5463 5461 5461 5460 5460 5460 5460 5460 5463 5466 5471 5477 5482 5489 5495 5495 5498
5666 5658 5649 5644 5637 5627 5619 5611 5601 5591 5582 5573 5565 5556 5547 5538 5528 5517 5507 5498 5490 5484 5480 5475 5472 5470 5468 5467 5465 5464 5462 5460 5459 5458 5459 5462 5467 5473 5479 5486 5491 5497 5499 5496
5662 5655 5648 5639 5630 5622 5614 5605 5596 5587 5579 5569 5561 5553 5544 5535 5526 5518 5511 5504 5498 5493 5489 5484 5480 5478 5476 5474 5472 5469 5467 5462 5460 5460 5463 5467 5473 5479 5485 5491 5496 5500 5502 5502
5654 5646 5639 5631 5624 5616 5608 5600 5592 5584 5574 5565 5557 5550 5544 5536 5530 5525 5519 5513 5507 5503 5499 5494 5490 5487 5485 5483 5480 5478 5475 5472 5468 5469 5473 5478 5483 5489 5494 5499 5503 5506 5507 5506
5654 5645 5636 5626 5619 5612 5606 5598 5590 5580 5571 5562 5554 5549 5543 5537 5532 5528 5525 5521 5518 5515 5511 5506 5501 5497 5495 5492 5489 5487 5486 5484 5484 5485 5487 5490 5495 5499 5503 5506 5509 5511 5510 5508
5652 5644 5635 5625 5617 5610 5602 5595 5587 5579 5569 5560 5553 5548 5544 5540 5536 5532 5530 5529 5527 5524 5520 5517 5510 5509 5505 5501 5496 5497 5497 5497 5496 5497 5499 5500 5504 5507 5510 5513 5515 5517 5517 5516
5649 5641 5632 5623 5615 5607 5600 5593 5586 5578 5568 5558 5552 5549 5547 5545 5542 5539 5537 5535 5532 5527 5526 5526 5524 5521 5517 5512 5506 5507 5506 5506 5507 5508 5508 5510 5512 5514 5517 5520 5522 5523 5525 5526
5644 5636 5628 5620 5612 5605 5597 5590 5584 5576 5568 5558 5552 5550 5548 5547 5545 5542 5541 5542 5540 5538 5537 5539 5539 5534 5530 5522 5520 5520 5518 5515 5515 5514 5515 5516 5518 5521 5524 5526 5528 5530 5532 5534
5638 5631 5624 5617 5609 5602 5596 5589 5582 5575 5567 5559 5553 5551 5551 5551 5550 5548 5546 5543 5544 5544 5546 5549 5549 5543 5540 5537 5539 5537 5533 5530 5527 5525 5525 5526 5527 5529 5531 5534 5537 5539 5542 5544
5634 5627 5620 5613 5607 5600 5595 5588 5581 5573 5566 5560 5555 5551 5550 5549 5549 5549 5549 5549 5550 5550 5555 5558 5557 5555 5554 5558 5559 5556 5552 5548 5546 5543 5542 5541 5542 5543 5545 5548 5551 5554 5557 5559
5630 5624 5617 5612 5605 5600 5593 5587 5580 5573 5566 5560 5555 5551 5549 5550 5550 5550 5549 5551 5553 5555 5562 5564 5565 5567 5569 5572 5572 5571 5569 5567 5566 5564 5562 5561 5561 5562 5564 5566 5568 5570 5571 5573
5626 5619 5615 5608 5603 5598 5592 5586 5579 5573 5566 5560 5554 5551 5547 5546 5546 5548 5549 5553 5555 5559 5565 5570 5572 5575 5579 5581 5581 5581 5580 5579 5579 5579 5578 5578 5578 5578 5578 5579 5580 5581 5583 5585
5623 5618 5614 5606 5602 5596 5589 5581 5575 5570 5564 5557 5552 5548 5544 5542 5542 5544 5547 5551 5555 5558 5564 5569 5574 5578 5581 5582 5584 5586 5587 5588 5589 5590 5590 5590 5588 5587 5587 5587 5588 5588 5589 5591
5622 5619 5613 5607 5601 5591 5582 5575 5570 5565 5559 5551 5548 5544 5539 5536 5535 5537 5541 5545 5549 5554 5559 5563 5569 5574 5577 5579 5582 5584 5586 5589 5591 5594 5596 5597 5597 5596 5596 5595 5594 5594 5594 5595